Location: Christ the King Cemetery
(37.6492°N, 100.0054°W)
Time: 20:15:37
(UTC+00:00)

Daily predictions for brighter satellites

Satellite Brightness Start Highest point End
(mag) Time Altitude Azimuth Time Altitude Azimuth Time Altitude Azimuth
SL-08 R/B 3.7 12:00:01 10° S 12:04:40 44° W 12:09:19 10° NNW
Cosmos 1437 Rocket 4.1 12:01:25 10° N 12:05:09 43° ENE 12:08:46 10° SSE
Cosmos 1500 Rocket 4.5 12:01:58 10° NNW 12:05:32 26° W 12:09:06 10° SW
Cosmos 1805 Rocket 4.2 12:07:34 10° NNW 12:11:32 33° W 12:15:30 10° SSW
NOSS 3-4 (A) 4.2 12:11:20 10° NNW 12:18:33 83° ENE 12:26:41 10° SSE
NOSS 3-4 (C) 4.2 12:11:26 10° NNW 12:18:39 82° ENE 12:26:49 10° SE
